When you browse on this site, cookies collect data to enhance your experience and personalize the content and advertising you see.
Visit our Privacy Policy to learn more. By continuing to use the site, you agree to this use of cookies and data.
  • In Latvia
  • List of Countries
  • For 7 days
  • Water Temperature
  • Satellite Maps
  • Weather Map
  • Weather Widgets
  • user-avatar
    Login

    Hourly Weather Rozwienica

    Today, 20 February, Wednesday

    Time Temperature Precipitation Wind Pressure Humidity
    00:00 +4°C° 0 mm 4 mps 741 mmHg 83%
    01:00 +4°C° 0 mm 4 mps 741 mmHg 84%
    02:00 +3°C° 0 mm 3 mps 740 mmHg 89%
    03:00 +3°C° 0.3 mm 3 mps 740 mmHg 89%
    04:00 +3°C° 0.3 mm 4 mps 741 mmHg 90%
    05:00 +3°C° 0.3 mm 5 mps 741 mmHg 90%
    06:00 +2°C° 0 mm 5 mps 741 mmHg 91%
    07:00 +2°C° 0 mm 5 mps 741 mmHg 91%
    08:00 +1°C° 0 mm 5 mps 741 mmHg 92%
    09:00 +2°C° 0 mm 5 mps 741 mmHg 87%
    10:00 +3°C° 0 mm 6 mps 742 mmHg 81%
    11:00 +3°C° 0 mm 6 mps 742 mmHg 76%
    12:00 +4°C° 0.1 mm 6 mps 742 mmHg 73%
    13:00 +4°C° 0.1 mm 7 mps 742 mmHg 69%
    14:00 +4°C° 0.1 mm 7 mps 743 mmHg 66%
    15:00 +4°C° 0.1 mm 7 mps 743 mmHg 65%
    16:00 +4°C° 0.1 mm 6 mps 743 mmHg 65%
    17:00 +4°C° 0.1 mm 6 mps 743 mmHg 65%
    18:00 +3°C° 0 mm 6 mps 743 mmHg 68%
    19:00 +3°C° 0 mm 5 mps 744 mmHg 71%
    20:00 +2°C° 0 mm 5 mps 744 mmHg 73%
    21:00 +3°C° 0 mm 4 mps 744 mmHg 74%
    22:00 +3°C° 0 mm 4 mps 745 mmHg 75%
    23:00 +3°C° 0 mm 4 mps 745 mmHg 76%

    Tomorrow, 21 February, Thursday

    Time Temperature Precipitation Wind Pressure Humidity
    00:00 +3°C° 0 mm 4 mps 745 mmHg 79%
    01:00 +1°C° 0 mm 4 mps 745 mmHg 82%
    02:00 +1°C° 0 mm 4 mps 746 mmHg 85%
    03:00 +1°C° 0 mm 4 mps 746 mmHg 87%
    04:00 0°C° 0 mm 4 mps 746 mmHg 89%
    05:00 0°C° 0 mm 4 mps 746 mmHg 91%
    06:00 0°C° 0 mm 4 mps 746 mmHg 90%
    07:00 0°C° 0 mm 4 mps 746 mmHg 89%
    08:00 0°C° 0 mm 4 mps 747 mmHg 88%
    09:00 +1°C° 0 mm 5 mps 747 mmHg 84%
    10:00 +2°C° 0 mm 5 mps 747 mmHg 81%
    11:00 +3°C° 0 mm 5 mps 747 mmHg 77%
    12:00 +5°C° 0 mm 5 mps 747 mmHg 73%
    13:00 +6°C° 0 mm 5 mps 746 mmHg 69%
    14:00 +7°C° 0 mm 5 mps 746 mmHg 65%
    15:00 +7°C° 0 mm 5 mps 746 mmHg 66%
    16:00 +7°C° 0 mm 4 mps 745 mmHg 66%
    17:00 +7°C° 0 mm 3 mps 745 mmHg 67%
    18:00 +6°C° 0.1 mm 4 mps 745 mmHg 70%
    19:00 +5°C° 0.1 mm 4 mps 744 mmHg 73%
    20:00 +5°C° 0.1 mm 5 mps 744 mmHg 75%
    21:00 +5°C° 0.6 mm 5 mps 744 mmHg 77%
    22:00 +4°C° 0.6 mm 6 mps 743 mmHg 80%
    23:00 +4°C° 0.6 mm 6 mps 743 mmHg 82%

    Day after tomorrow, 22 February, Friday

    Time Temperature Precipitation Wind Pressure Humidity
    00:00 +4°C° 0.8 mm 6 mps 742 mmHg 83%
    01:00 +3°C° 0.8 mm 6 mps 742 mmHg 85%
    02:00 +3°C° 0.8 mm 6 mps 742 mmHg 86%
    03:00 +3°C° 0.5 mm 6 mps 741 mmHg 87%
    04:00 +3°C° 0.5 mm 6 mps 741 mmHg 89%
    05:00 +3°C° 0.5 mm 5 mps 740 mmHg 90%
    06:00 +3°C° 0.8 mm 5 mps 741 mmHg 91%
    07:00 +3°C° 0.8 mm 5 mps 741 mmHg 92%
    08:00 +3°C° 0.8 mm 5 mps 741 mmHg 92%
    09:00 +1°C° 0.7 mm 6 mps 742 mmHg 88%
    10:00 -2°C° 0.7 mm 6 mps 744 mmHg 84%
    11:00 -4°C° 0.7 mm 7 mps 745 mmHg 80%
    12:00 -4°C° 0.1 mm 7 mps 746 mmHg 75%
    13:00 -4°C° 0.1 mm 7 mps 747 mmHg 71%
    14:00 -4°C° 0.1 mm 7 mps 749 mmHg 66%
    15:00 -6°C° 0 mm 7 mps 749 mmHg 64%
    16:00 -5°C° 0 mm 6 mps 750 mmHg 63%
    17:00 -6°C° 0 mm 6 mps 750 mmHg 61%
    18:00 -6°C° 0 mm 6 mps 751 mmHg 61%
    19:00 -8°C° 0 mm 6 mps 752 mmHg 60%
    20:00 -8°C° 0 mm 6 mps 753 mmHg 60%
    21:00 -8°C° 0 mm 6 mps 753 mmHg 57%
    22:00 -9°C° 0 mm 6 mps 754 mmHg 54%
    23:00 -9°C° 0 mm 6 mps 755 mmHg 51%

    23 February, Saturday

    Time Temperature Precipitation Wind Pressure Humidity
    00:00 -9°C° 0 mm 6 mps 755 mmHg 50%
    01:00 -8°C° 0 mm 5 mps 755 mmHg 49%
    02:00 -8°C° 0 mm 5 mps 755 mmHg 48%
    03:00 -8°C° 0 mm 5 mps 756 mmHg 49%
    04:00 -8°C° 0 mm 5 mps 756 mmHg 49%
    05:00 -8°C° 0 mm 5 mps 756 mmHg 50%
    06:00 -8°C° 0 mm 5 mps 756 mmHg 51%
    07:00 -9°C° 0 mm 4 mps 756 mmHg 52%
    08:00 -9°C° 0 mm 4 mps 757 mmHg 53%
    09:00 -8°C° 0 mm 4 mps 757 mmHg 52%
    10:00 -8°C° 0 mm 4 mps 757 mmHg 50%
    11:00 -7°C° 0 mm 5 mps 758 mmHg 48%
    12:00 -7°C° 0 mm 4 mps 758 mmHg 45%
    13:00 -5°C° 0 mm 4 mps 757 mmHg 43%
    14:00 -4°C° 0 mm 4 mps 757 mmHg 41%
    15:00 -4°C° 0 mm 4 mps 757 mmHg 41%
    16:00 -5°C° 0 mm 4 mps 757 mmHg 42%
    17:00 -5°C° 0 mm 4 mps 757 mmHg 42%
    18:00 -5°C° 0 mm 4 mps 757 mmHg 44%
    19:00 -5°C° 0 mm 3 mps 757 mmHg 47%
    20:00 -6°C° 0 mm 3 mps 757 mmHg 49%
    21:00 -5°C° 0 mm 2 mps 757 mmHg 50%
    22:00 -5°C° 0 mm 2 mps 758 mmHg 51%
    23:00 -5°C° 0 mm 2 mps 758 mmHg 53%

    24 February, Sunday

    Time Temperature Precipitation Wind Pressure Humidity
    00:00 -5°C° 0 mm 2 mps 757 mmHg 54%
    01:00 -3°C° 0 mm 1 mps 757 mmHg 55%
    02:00 -3°C° 0 mm 1 mps 757 mmHg 56%
    03:00 -4°C° 0 mm 1 mps 757 mmHg 57%
    04:00 -4°C° 0 mm 1 mps 757 mmHg 57%
    05:00 -6°C° 0 mm 2 mps 756 mmHg 58%
    06:00 -6°C° 0 mm 2 mps 756 mmHg 56%
    07:00 -6°C° 0 mm 2 mps 756 mmHg 55%
    08:00 -6°C° 0 mm 2 mps 756 mmHg 53%
    09:00 -5°C° 0 mm 2 mps 756 mmHg 47%
    10:00 -4°C° 0 mm 2 mps 757 mmHg 40%
    11:00 -2°C° 0 mm 2 mps 757 mmHg 33%
    12:00 -2°C° 0 mm 2 mps 756 mmHg 35%
    13:00 -1°C° 0 mm 3 mps 756 mmHg 37%
    14:00 -1°C° 0 mm 3 mps 756 mmHg 39%
    15:00 0°C° 0 mm 3 mps 755 mmHg 42%
    16:00 +1°C° 0 mm 2 mps 755 mmHg 44%
    17:00 +1°C° 0 mm 2 mps 755 mmHg 47%
    18:00 -1°C° 0 mm 2 mps 755 mmHg 50%
    19:00 -1°C° 0 mm 2 mps 755 mmHg 53%
    20:00 -2°C° 0 mm 2 mps 755 mmHg 55%
    21:00 -2°C° 0 mm 2 mps 755 mmHg 57%
    22:00 -2°C° 0 mm 2 mps 755 mmHg 58%
    23:00 -2°C° 0 mm 2 mps 755 mmHg 59%

    25 February, Monday

    Time Temperature Precipitation Wind Pressure Humidity
    00:00 -2°C° 0 mm 2 mps 755 mmHg 59%
    01:00 -2°C° 0 mm 2 mps 755 mmHg 59%
    02:00 -2°C° 0 mm 2 mps 755 mmHg 59%
    03:00 -2°C° 0 mm 2 mps 755 mmHg 59%
    04:00 -3°C° 0 mm 2 mps 754 mmHg 59%
    05:00 -4°C° 0 mm 3 mps 754 mmHg 60%
    06:00 -4°C° 0 mm 3 mps 754 mmHg 59%
    07:00 -2°C° 0 mm 3 mps 753 mmHg 58%
    08:00 -2°C° 0 mm 3 mps 753 mmHg 57%
    09:00 -2°C° 0 mm 4 mps 753 mmHg 56%
    10:00 -1°C° 0 mm 4 mps 752 mmHg 55%
    11:00 0°C° 0 mm 5 mps 752 mmHg 53%
    12:00 +1°C° 0 mm 5 mps 752 mmHg 55%
    13:00 +2°C° 0 mm 5 mps 752 mmHg 57%
    14:00 +3°C° 0 mm 5 mps 751 mmHg 59%
    15:00 +2°C° 0 mm 5 mps 751 mmHg 68%
    16:00 +1°C° 0 mm 5 mps 751 mmHg 78%
    17:00 +1°C° 0 mm 4 mps 751 mmHg 87%
    18:00 0°C° 0 mm 4 mps 752 mmHg 87%
    19:00 0°C° 0 mm 4 mps 752 mmHg 87%
    20:00 -1°C° 0 mm 4 mps 752 mmHg 87%
    21:00 -2°C° 0 mm 4 mps 753 mmHg 89%
    22:00 -2°C° 0 mm 4 mps 753 mmHg 91%
    23:00 -2°C° 0 mm 3 mps 753 mmHg 92%
    Show more